This is the latest recevied weather packets stored in our database for station/object K9APR. If no packets are shown the sender has not sent any weather packets the latest 10 day(s).
| Time | Temp. | Humidity | Pressure | Rain* | Wind** | Luminosity | Snow |
|---|---|---|---|---|---|---|---|
| 1777480860 | 13.89° C | 84% | 1011 hPa | 0 mm | - | - | - |
| 1777480321 | 13.89° C | 86% | 1011.1 hPa | 0 mm | - | - | - |
| 1777479781 | 13.33° C | 87% | 1011.2 hPa | 0 mm | - | - | - |
| 1777479241 | 12.78° C | 87% | 1011.2 hPa | 0 mm | - | - | - |
| 1777478701 | 12.78° C | 88% | 1011.2 hPa | 0 mm | - | - | - |
| 1777478161 | 12.78° C | 88% | 1011.4 hPa | 0 mm | - | - | - |
| 1777477620 | 12.22° C | 88% | 1011.3 hPa | 0 mm | - | - | - |
| 1777477081 | 12.22° C | 89% | 1011.2 hPa | 0 mm | - | - | - |
| 1777476541 | 12.22° C | 90% | 1011 hPa | 0 mm | - | - | - |
| 1777476003 | 12.22° C | 89% | 1011.2 hPa | 0 mm | - | - | - |
| 1777475461 | 12.22° C | 90% | 1010.9 hPa | 0 mm | - | - | - |
| 1777474920 | 12.22° C | 90% | 1010.7 hPa | 0 mm | - | - | - |
| 1777474380 | 11.67° C | 90% | 1011.2 hPa | 0 mm | - | - | - |
| 1777473841 | 11.67° C | 90% | 1011.2 hPa | 0 mm | - | - | - |
| 1777473302 | 11.67° C | 91% | 1011.1 hPa | 0 mm | - | - | - |
| 1777472761 | 11.67° C | 91% | 1011.2 hPa | 0 mm | - | - | - |
| 1777472221 | 11.67° C | 91% | 1011.2 hPa | 0.51 mm | - | - | - |
| 1777471681 | 11.67° C | 91% | 1011.2 hPa | 1.52 mm | - | - | - |
| 1777471141 | 11.67° C | 91% | 1011.1 hPa | 2.03 mm | - | - | - |
| 1777470601 | 11.67° C | 91% | 1010.9 hPa | 2.03 mm | - | - | - |
| 1777470061 | 11.67° C | 91% | 1010.5 hPa | 2.29 mm | - | - | - |
| 1777469519 | 11.67° C | 92% | 1010.4 hPa | 2.54 mm | - | - | - |
| 1777468981 | 11.67° C | 92% | 1010.1 hPa | 2.54 mm | - | - | - |
| 1777468441 | 11.11° C | 92% | 1010.9 hPa | 2.03 mm | - | - | - |
| 1777467900 | 11.11° C | 91% | 1011.4 hPa | 1.02 mm | - | - | - |
* Rain latest hour (hover to see other rain measurements)
** Current wind speed in m/s (hover to see current wind gust speed)